shenyang , China , ASIA

  • Thursday
    November 21

      Cloudy

      39 °F

      South

      5~6L 

  • Friday
    November 22

    Cloudy  Light rain

    54 °F  46 °F

    South  South

    5~6L   4~5L 

  • Saturday
    November 23

    Light rain  Cloudy

    50 °F  25 °F

    Northwest  North

    3~4L   3~4L 

  • Sunday
    November 24

    Cloudy  Sunny

    28 °F  12 °F

    North  North

    4~5L   3~4L 

  • Monday
    November 25

    Sunny  Sunny

    27 °F  14 °F

    North  South

        

  • Tuesday
    November 26

    Sunny  Sunny

    25 °F  18 °F

    South  North

        

  • Wednesday
    November 27

    Sunny  Sunny

    28 °F  10 °F

    North  North

    3~4L    

Date   Weather Temperature Humidity Total_rain Visibility Wind
23:00 Cloudy 40°F 93.6% 0mm 999.9km Southwest  2.2m/s
02:00 Cloudy 40°F 87% 0mm 999.9km Southwest  2.5m/s
05:00 Cloudy 42°F 87% 0mm 999.9km Southeast  1.7m/s
08:00 Cloudy 42°F 76.9% 0mm 999.9km Southeast  3.5m/s
11:00 Cloudy 53°F 72.8% 0mm 999.9km Southwest  4.2m/s
14:00 Cloudy 53°F 67.5% 0mm 999.9km Southwest  4.4m/s
17:00 Cloudy 50°F 78.3% 0mm 999.9km Southeast  3.1m/s
20:00 Cloudy 45°F 91% 0mm 999.9km Southwest  2.5m/s
23:00 Light rain 48°F 98% 0.1mm 999.9km Southwest  2.5m/s
02:00 Light rain 49°F 95.8% 0.2mm 999.9km Southwest  2.1m/s
05:00 Light rain 49°F 89.1% 0.2mm 999.9km Southwest  3.4m/s
08:00 Light rain 49°F 76.6% 0.4mm 999.9km Southwest  2.8m/s
11:00 Light rain 50°F 74.7% 1.7mm 999.9km Southwest  2.8m/s
14:00 Light rain 49°F 73.1% 2.3mm 999.9km Northwest  3.3m/s
17:00 Light rain 48°F 75.9% 1.1mm 999.9km Northeast  2.7m/s
20:00 Light rain 47°F 61.7% 0.3mm 999.9km Northeast  2.9m/s
23:00 Cloudy 28°F 68.6% 0mm 999.9km Northeast  3.1m/s
02:00 Cloudy 27°F 74.4% 0mm 999.9km Northeast  4.1m/s
05:00 Cloudy 26°F 81.3% 0mm 999.9km Northeast  3.1m/s
08:00 Cloudy 26°F 57.2% 0mm 999.9km Northeast  3.3m/s
11:00 Cloudy 26°F 54.3% 0mm 999.9km Northeast  3.8m/s
14:00 Cloudy 26°F 55.2% 0mm 999.9km Northwest  4.8m/s
17:00 Cloudy 26°F 47.9% 0mm 999.9km Northeast  3.3m/s
20:00 Cloudy 25°F 41% 0mm 999.9km Northeast  2.0m/s
23:00 Sunny 17°F 70.3% 0mm 999.9km Northeast  3.6m/s
02:00 Sunny 14°F 68.2% 0mm 999.9km Northeast  3.6m/s
05:00 Sunny 13°F 68% 0mm 999.9km Northeast  3.2m/s
08:00 Sunny 15°F 55% 0mm 999.9km Northeast  3.7m/s
11:00 Sunny 24°F 43.5% 0mm 999.9km Northeast  4.0m/s
14:00 Sunny 26°F 42.6% 0mm 999.9km Northeast  3.6m/s
17:00 Sunny 22°F 45.5% 0mm 999.9km Northeast  2.4m/s
20:00 Sunny 17°F 36.1% 0mm 999.9km Northeast  2.0m/s
23:00 Sunny 15°F 78.1% 0mm 999.9km Northeast  1.4m/s
02:00 Sunny 15°F 78.3% 0mm 999.9km Northeast  1.2m/s
05:00 Sunny 14°F 78.1% 0mm 999.9km Northeast  1.2m/s
08:00 Sunny 17°F 61.7% 0mm 999.9km Southeast  1.2m/s
11:00 Sunny 23°F 46.8% 0mm 999.9km Northwest  3.4m/s
14:00 Sunny 24°F 33.6% 0mm 999.9km Northwest  1.4m/s
17:00 Sunny 22°F 48.6% 0mm 999.9km Northwest  4.2m/s
20:00 Sunny 20°F 35.5% 0mm 999.9km Southwest  0.4m/s
23:00 Sunny 22°F 68.7% 0mm 999.9km Northeast  4.1m/s
02:00 Sunny 19°F 55% 0mm 999.9km Northeast  1.3m/s
05:00 Sunny 18°F 49.3% 0mm 999.9km Northeast  4.2m/s
08:00 Sunny 23°F 42.6% 0mm 999.9km Northeast  3.5m/s
11:00 Sunny 23°F 40.6% 0mm 999.9km Northeast  4.1m/s
14:00 Sunny 28°F 38.7% 0mm 999.9km Northeast  6.0m/s
17:00 Sunny 23°F 41.5% 0mm 999.9km Northwest  3.2m/s
20:00 Sunny 21°F 32.6% 0mm 999.9km Northeast  4.8m/s
23:00 Sunny 14°F 72.7% 0mm 999.9km Northeast  2.0m/s
02:00 Sunny 13°F 54.9% 0mm 999.9km Northeast  4.4m/s
05:00 Sunny 11°F 53.1% 0mm 999.9km Northeast  1.7m/s